TimeCST,TemperatureF,Dew PointF,Humidity,Sea Level PressureIn,VisibilityMPH,Wind Direction,Wind SpeedMPH,Gust SpeedMPH,PrecipitationIn,Events,Conditions,WindDirDegrees,DateUTC
12:53 AM,36.0,33.1,89,30.26,10.0,Calm,Calm,-,N/A,,Clear,0,2013-12-01 06:53:00
1:53 AM,36.0,33.1,89,30.25,10.0,Calm,Calm,-,N/A,,Clear,0,2013-12-01 07:53:00
2:53 AM,35.1,33.1,92,30.25,10.0,Calm,Calm,-,N/A,,Clear,0,2013-12-01 08:53:00
3:53 AM,35.1,32.0,89,30.25,10.0,Calm,Calm,-,N/A,,Clear,0,2013-12-01 09:53:00
4:53 AM,36.0,32.0,86,30.25,10.0,Calm,Calm,-,N/A,,Clear,0,2013-12-01 10:53:00
5:53 AM,34.0,32.0,92,30.26,10.0,Calm,Calm,-,N/A,,Clear,0,2013-12-01 11:53:00
6:53 AM,35.1,33.1,92,30.26,10.0,Calm,Calm,-,N/A,,Clear,0,2013-12-01 12:53:00
7:53 AM,41.0,37.9,89,30.25,10.0,South,4.6,-,N/A,,Clear,170,2013-12-01 13:53:00
8:53 AM,51.1,45.0,80,30.24,10.0,Calm,Calm,-,N/A,,Clear,0,2013-12-01 14:53:00
9:53 AM,61.0,45.0,56,30.22,10.0,South,5.8,-,N/A,,Clear,190,2013-12-01 15:53:00
10:53 AM,64.9,45.0,48,30.20,10.0,WSW,4.6,-,N/A,,Clear,240,2013-12-01 16:53:00
11:53 AM,66.9,46.0,47,30.16,10.0,Variable,3.5,-,N/A,,Clear,0,2013-12-01 17:53:00
12:53 PM,69.1,46.0,44,30.12,10.0,Calm,Calm,-,N/A,,Partly Cloudy,0,2013-12-01 18:53:00
1:53 PM,69.1,46.9,45,30.09,10.0,NW,3.5,-,N/A,,Clear,310,2013-12-01 19:53:00
2:53 PM,68.0,46.9,47,30.08,10.0,Calm,Calm,-,N/A,,Scattered Clouds,0,2013-12-01 20:53:00
3:53 PM,66.9,48.9,52,30.06,10.0,Calm,Calm,-,N/A,,Partly Cloudy,0,2013-12-01 21:53:00
4:53 PM,61.0,53.1,75,30.06,10.0,Calm,Calm,-,N/A,,Clear,0,2013-12-01 22:53:00
5:53 PM,57.9,51.1,78,30.05,10.0,Calm,Calm,-,N/A,,Clear,0,2013-12-01 23:53:00
6:53 PM,55.0,50.0,83,30.05,10.0,Calm,Calm,-,N/A,,Clear,0,2013-12-02 00:53:00
7:53 PM,57.9,50.0,75,30.05,10.0,Calm,Calm,-,N/A,,Clear,0,2013-12-02 01:53:00
8:53 PM,55.0,50.0,83,30.02,10.0,SSE,3.5,-,N/A,,Clear,150,2013-12-02 02:53:00
9:53 PM,55.9,50.0,80,30.01,10.0,South,6.9,-,N/A,,Clear,180,2013-12-02 03:53:00
10:53 PM,57.0,50.0,77,30.04,10.0,SW,4.6,-,N/A,,Mostly Cloudy,220,2013-12-02 04:53:00
11:53 PM,55.0,50.0,83,29.99,10.0,ESE,4.6,-,N/A,,Mostly Cloudy,120,2013-12-02 05:53:00